Previsão horária em Cedar Falls

Hoje, 3 Agosto, Terça-feira

Tempo Temperatura Precipitação Vento Pressão Humidade
00:00 +15°C° 0 mm 0 m/s 740 mmHg 80%
01:00 +15°C° 0 mm 0 m/s 740 mmHg 81%
02:00 +14°C° 0 mm 0 m/s 740 mmHg 82%
03:00 +14°C° 0 mm 0 m/s 739 mmHg 83%
04:00 +15°C° 0 mm 1 m/s 740 mmHg 83%
05:00 +15°C° 0 mm 1 m/s 740 mmHg 82%
06:00 +15°C° 0 mm 1 m/s 740 mmHg 82%
07:00 +19°C° 0 mm 1 m/s 740 mmHg 71%
08:00 +22°C° 0 mm 1 m/s 740 mmHg 60%
09:00 +25°C° 0 mm 1 m/s 740 mmHg 48%
10:00 +27°C° 0 mm 1 m/s 740 mmHg 44%
11:00 +28°C° 0 mm 1 m/s 740 mmHg 39%
12:00 +30°C° 0 mm 1 m/s 740 mmHg 35%
13:00 +29°C° 0 mm 2 m/s 739 mmHg 35%
14:00 +29°C° 0 mm 2 m/s 739 mmHg 35%
15:00 +29°C° 0 mm 2 m/s 739 mmHg 35%
16:00 +28°C° 0 mm 2 m/s 739 mmHg 38%
17:00 +28°C° 0 mm 3 m/s 739 mmHg 41%
18:00 +27°C° 0 mm 3 m/s 739 mmHg 44%
19:00 +25°C° 0 mm 3 m/s 739 mmHg 50%
20:00 +24°C° 0 mm 3 m/s 739 mmHg 55%
21:00 +21°C° 0 mm 2 m/s 739 mmHg 61%
22:00 +20°C° 0 mm 3 m/s 739 mmHg 68%
23:00 +19°C° 0 mm 3 m/s 739 mmHg 74%

Amanhã, 4 Agosto, Quarta-feira

Tempo Temperatura Precipitação Vento Pressão Humidade
00:00 +18°C° 0 mm 3 m/s 739 mmHg 80%
01:00 +17°C° 0 mm 2 m/s 739 mmHg 83%
02:00 +16°C° 0 mm 2 m/s 739 mmHg 85%
03:00 +16°C° 0 mm 2 m/s 739 mmHg 87%
04:00 +16°C° 0 mm 2 m/s 739 mmHg 86%
05:00 +16°C° 0 mm 1 m/s 739 mmHg 84%
06:00 +16°C° 0 mm 1 m/s 740 mmHg 83%
07:00 +20°C° 0 mm 1 m/s 740 mmHg 72%
08:00 +23°C° 0 mm 2 m/s 740 mmHg 61%
09:00 +26°C° 0 mm 2 m/s 740 mmHg 49%
10:00 +27°C° 0 mm 2 m/s 740 mmHg 44%
11:00 +29°C° 0 mm 3 m/s 740 mmHg 39%
12:00 +30°C° 0 mm 4 m/s 740 mmHg 34%
13:00 +30°C° 0 mm 4 m/s 739 mmHg 33%
14:00 +32°C° 0 mm 5 m/s 739 mmHg 32%
15:00 +32°C° 0 mm 5 m/s 739 mmHg 31%
16:00 +30°C° 0 mm 5 m/s 738 mmHg 35%
17:00 +29°C° 0 mm 5 m/s 738 mmHg 39%
18:00 +28°C° 0 mm 5 m/s 738 mmHg 42%
19:00 +25°C° 0 mm 4 m/s 738 mmHg 54%
20:00 +22°C° 0 mm 4 m/s 739 mmHg 66%
21:00 +19°C° 0 mm 3 m/s 739 mmHg 78%
22:00 +19°C° 0 mm 3 m/s 739 mmHg 81%
23:00 +18°C° 0 mm 3 m/s 738 mmHg 84%

Depois de amanhã, 5 Agosto, Quinta-feira

Tempo Temperatura Precipitação Vento Pressão Humidade
00:00 +18°C° 0 mm 3 m/s 738 mmHg 87%
01:00 +17°C° 0 mm 3 m/s 738 mmHg 89%
02:00 +17°C° 0 mm 3 m/s 738 mmHg 92%
03:00 +16°C° 0 mm 3 m/s 738 mmHg 94%
04:00 +17°C° 0 mm 3 m/s 738 mmHg 92%
05:00 +18°C° 0 mm 3 m/s 738 mmHg 89%
06:00 +18°C° 0 mm 4 m/s 738 mmHg 86%
07:00 +20°C° 0 mm 4 m/s 738 mmHg 80%
08:00 +21°C° 0 mm 5 m/s 738 mmHg 73%
09:00 +22°C° 0 mm 5 m/s 738 mmHg 67%
10:00 +23°C° 0.1 mm 5 m/s 737 mmHg 65%
11:00 +23°C° 0.1 mm 5 m/s 737 mmHg 63%
12:00 +25°C° 0.1 mm 5 m/s 737 mmHg 62%
13:00 +26°C° 0 mm 5 m/s 737 mmHg 61%
14:00 +26°C° 0 mm 6 m/s 736 mmHg 60%
15:00 +27°C° 0 mm 6 m/s 736 mmHg 59%
16:00 +26°C° 0 mm 5 m/s 736 mmHg 64%
17:00 +26°C° 0 mm 5 m/s 735 mmHg 70%
18:00 +25°C° 0 mm 5 m/s 735 mmHg 75%
19:00 +23°C° 0 mm 4 m/s 735 mmHg 83%
20:00 +21°C° 0 mm 4 m/s 735 mmHg 90%
21:00 +20°C° 0 mm 3 m/s 735 mmHg 97%
22:00 +20°C° 0.6 mm 3 m/s 735 mmHg 98%
23:00 +19°C° 0.6 mm 2 m/s 734 mmHg 98%

6 Agosto, Sexta-feira

Tempo Temperatura Precipitação Vento Pressão Humidade
00:00 +19°C° 0.6 mm 2 m/s 734 mmHg 98%
01:00 +19°C° 0.2 mm 3 m/s 734 mmHg 98%
02:00 +19°C° 0.2 mm 3 m/s 734 mmHg 99%
03:00 +19°C° 0.2 mm 4 m/s 733 mmHg 99%
04:00 +19°C° 0.4 mm 3 m/s 734 mmHg 98%
05:00 +20°C° 0.4 mm 2 m/s 734 mmHg 98%
06:00 +21°C° 0.4 mm 1 m/s 734 mmHg 98%
07:00 +23°C° 0 mm 1 m/s 734 mmHg 92%
08:00 +22°C° 0 mm 0 m/s 734 mmHg 86%
09:00 +23°C° 0 mm 0 m/s 735 mmHg 81%
10:00 +27°C° 0 mm 1 m/s 734 mmHg 70%
11:00 +30°C° 0 mm 2 m/s 734 mmHg 60%
12:00 +32°C° 0 mm 2 m/s 734 mmHg 49%
13:00 +34°C° 0 mm 3 m/s 734 mmHg 45%
14:00 +35°C° 0 mm 3 m/s 734 mmHg 40%
15:00 +36°C° 0 mm 3 m/s 733 mmHg 36%
16:00 +35°C° 0 mm 4 m/s 733 mmHg 39%
17:00 +35°C° 0 mm 4 m/s 733 mmHg 42%
18:00 +34°C° 0 mm 5 m/s 733 mmHg 46%
19:00 +30°C° 0 mm 4 m/s 733 mmHg 59%
20:00 +28°C° 0 mm 4 m/s 733 mmHg 72%
21:00 +25°C° 0 mm 3 m/s 734 mmHg 85%
22:00 +25°C° 0 mm 3 m/s 734 mmHg 89%
23:00 +24°C° 0 mm 3 m/s 733 mmHg 92%

7 Agosto, Sábado

Tempo Temperatura Precipitação Vento Pressão Humidade
00:00 +24°C° 0 mm 3 m/s 733 mmHg 95%
01:00 +22°C° 0 mm 3 m/s 733 mmHg 95%
02:00 +23°C° 0 mm 2 m/s 733 mmHg 95%
03:00 +23°C° 0 mm 2 m/s 733 mmHg 94%
04:00 +21°C° 0 mm 2 m/s 733 mmHg 94%
05:00 +21°C° 0 mm 3 m/s 733 mmHg 93%
06:00 +21°C° 0 mm 3 m/s 733 mmHg 92%
07:00 +25°C° 0 mm 3 m/s 733 mmHg 80%
08:00 +28°C° 0 mm 2 m/s 733 mmHg 68%
09:00 +31°C° 0 mm 2 m/s 733 mmHg 56%
10:00 +34°C° 0 mm 3 m/s 733 mmHg 49%
11:00 +36°C° 0 mm 4 m/s 733 mmHg 43%
12:00 +39°C° 0 mm 5 m/s 733 mmHg 36%
13:00 +39°C° 0 mm 6 m/s 733 mmHg 35%
14:00 +39°C° 0 mm 6 m/s 733 mmHg 34%
15:00 +39°C° 0 mm 6 m/s 733 mmHg 33%
16:00 +36°C° 0 mm 6 m/s 733 mmHg 42%
17:00 +34°C° 0 mm 6 m/s 733 mmHg 50%
18:00 +32°C° 0 mm 6 m/s 732 mmHg 59%
19:00 +29°C° 0 mm 6 m/s 732 mmHg 67%
20:00 +28°C° 0 mm 5 m/s 732 mmHg 75%
21:00 +27°C° 0 mm 5 m/s 732 mmHg 84%
22:00 +27°C° 0.1 mm 5 m/s 733 mmHg 84%
23:00 +26°C° 0.1 mm 5 m/s 733 mmHg 85%

8 Agosto, Domingo

Tempo Temperatura Precipitação Vento Pressão Humidade
00:00 +26°C° 0.1 mm 5 m/s 733 mmHg 86%
01:00 +25°C° 0.9 mm 5 m/s 732 mmHg 89%
02:00 +23°C° 0.9 mm 5 m/s 732 mmHg 92%
03:00 +21°C° 0.9 mm 5 m/s 732 mmHg 95%
04:00 +21°C° 0.8 mm 5 m/s 732 mmHg 95%
05:00 +21°C° 0.8 mm 5 m/s 732 mmHg 95%
06:00 +22°C° 0.8 mm 5 m/s 732 mmHg 95%
07:00 +23°C° 0.2 mm 7 m/s 732 mmHg 87%
08:00 +26°C° 0.2 mm 8 m/s 732 mmHg 78%
09:00 +27°C° 0.2 mm 9 m/s 732 mmHg 70%
10:00 +28°C° 0 mm 9 m/s 732 mmHg 66%
11:00 +29°C° 0 mm 9 m/s 732 mmHg 63%
12:00 +32°C° 0 mm 9 m/s 732 mmHg 59%
13:00 +29°C° 2.6 mm 8 m/s 731 mmHg 69%
14:00 +28°C° 2.6 mm 7 m/s 731 mmHg 79%
15:00 +27°C° 2.6 mm 6 m/s 731 mmHg 89%
16:00 +27°C° 2.9 mm 7 m/s 730 mmHg 87%
17:00 +27°C° 2.9 mm 9 m/s 730 mmHg 86%
18:00 +28°C° 2.9 mm 10 m/s 729 mmHg 84%
19:00 +26°C° 1.3 mm 9 m/s 729 mmHg 87%
20:00 +24°C° 1.3 mm 9 m/s 730 mmHg 90%
21:00 +22°C° 1.3 mm 8 m/s 730 mmHg 93%
22:00 +22°C° 0.4 mm 8 m/s 730 mmHg 92%
23:00 +22°C° 0.4 mm 7 m/s 730 mmHg 91%
Mostrar mais

Necessitamos do seu Consentimento

A Meteoprog e os seus Fornecedores de Serviços podem armazenar e aceder a dados pessoais como cookies, identificadores do dispositivo ou outras tecnologias semelhantes existentes no seu dispositivo e processar estes dados para personalizar conteúdos e anúncios, assim como funcionalidades nas redes sociais e análise de tráfego.

  • Armazenar e/ou aceder a informações no seu dispositivo

    Os cookies, identificadores do dispositivo ou outras informações podem ser armazenados ou acedidos no seu dispositivo, para os fins acima indicados.

  • Anúncios e conteúdos personalizados, medição de anúncios e conteúdos, dados sobre o público-alvo e desenvolvimento de produtos

    Os anúncios e os conteúdos podem ser personalizados com base num perfil. Podem ser adicionados dados adicionais para uma maior personalização dos anúncios e dos conteúdos. A eficácia dos anúncios e dos conteúdos pode ser medida. Podem ser obtidas informações sobre o público que visualizou os anúncios e os conteúdos. Estes dados podem ser usados para desenvolver ou melhorar sistemas, softwares ou a experiência do utilizador.

Ao clicar em "Eu concordo”, permitirá o uso de cookies, identificadores do dispositivo e web beacons mencionados ou outras tecnologias semelhantes. As configurações do navegador do seu dispositivo podem ser alteradas.

Para certos fins, podem ser invocados interesses legítimos ao invés de consentimento. Pode ler mais informação sobre este assunto na nossa Política de Privacidade e Cookies.